Regional Weather Roundup
Issued by NWS

Home | Current Version | Previous Version | Graphics & Text | Print | Product List | Glossary On
Versions: 1 2 3 4 5 6 7 8 9 10 11 12 13 14 15 16 17 18 19 20 21 22 23 24 25 26 27 28 29 30 31 32 33 34 35 36 37 38 39 40 41 42 43 44 45 46 47 48 49 50
000
ASUS43 KLSX 240010
RWRMO

WEATHER SUMMARY FOR MISSOURI
NATIONAL WEATHER SERVICE SPRINGFIELD MO
700 PM CDT TUE MAY 23 2017

NOTE: "FAIR" INDICATES FEW OR NO CLOUDS BELOW 12,000 FEET WITH NO
       SIGNIFICANT WEATHER AND/OR OBSTRUCTIONS TO VISIBILITY.
       CURRENT SKY AND/OR WEATHER CONDITIONS ARE NOT AVAILABLE FOR
       CHILLICOTHE AND FARMINGTON.

MOZ001>031-035>038-043-044-053-054-240100-
...NORTHERN AND WESTERN MISSOURI...

CITY           SKY/WX    TMP DP  RH WIND       PRES   REMARKS
KANSAS CTY INT CLOUDY    56  51  84 SW5       29.80R
6HR MIN TEMP:  56; 6HR MAX TEMP:  66; 6HR PCP:  0.09;

KANSAS C DTWN  RAIN      55  49  80 NW7       29.80R
6HR MIN TEMP:  55; 6HR MAX TEMP:  68; 6HR PCP:  0.12;

LEE`S SUMMIT   CLOUDY    61  48  62 NW7       29.79S
6HR MIN TEMP:  58; 6HR MAX TEMP:  67; 6HR PCP:  0.01;

ST JOSEPH      CLOUDY    60  48  64 NW13      29.80S
6HR MIN TEMP:  60; 6HR MAX TEMP:  66;

CHILLICOTHE      N/A     60  45  57 VRB6G16   29.78S
6HR MIN TEMP:  60; 6HR MAX TEMP:  67;

KIRKSVILLE     SUNNY     60  44  55 NW12G18   29.75S
6HR MIN TEMP:  60; 6HR MAX TEMP:  66;


$$
MOZ066>068-077>081-088>096-101>105-240100-
...SOUTHWEST MISSOURI...

CITY           SKY/WX    TMP DP  RH WIND       PRES   REMARKS
SPRINGFIELD    SUNNY     65  48  54 NW12      29.76F
6HR MIN TEMP:  62; 6HR MAX TEMP:  66; 6HR PCP: TRACE;

JOPLIN         CLOUDY    67  49  52 NW14G22   29.78F
6HR MIN TEMP:  62; 6HR MAX TEMP:  71;

BRANSON        PTSUNNY   63  54  72 NW6       29.78S

$$
MOZ032>034-039>042-045>050-055>058-069>072-240100-
...CENTRAL MISSOURI...

CITY           SKY/WX    TMP DP  RH WIND       PRES   REMARKS
COLUMBIA       CLOUDY    62  50  64 W6        29.74S
6HR MIN TEMP:  61; 6HR MAX TEMP:  68; 6HR PCP:  0.02;

JEFFERSON CITY CLOUDY    67  48  50 NW16G23   29.74S
6HR MIN TEMP:  65; 6HR MAX TEMP:  70;

SEDALIA        CLOUDY    64  50  60 NW13      29.77S
6HR MIN TEMP:  64; 6HR MAX TEMP:  68;

WHITEMAN AFB   PTSUNNY   63  47  57 NW7       29.76S
WARRENSBURG    CLOUDY    63  45  51 NW5       29.77F

$$
MOZ051-052-059>065-240100-
...EAST CENTRAL MISSOURI...

CITY           SKY/WX    TMP DP  RH WIND       PRES   REMARKS
ST LOUIS INTL  PTSUNNY   64  55  72 N9        29.71F
6HR MIN TEMP:  62; 6HR MAX TEMP:  69; 6HR PCP:  0.15;

SPIRIT OF STL  PTSUNNY   63  57  81 CALM      29.71F
6HR MIN TEMP:  62; 6HR MAX TEMP:  67; 6HR PCP:  0.04;

ST CHARLES     CLOUDY    63  58  83 N3        29.70F
6HR MIN TEMP:  59; 6HR MAX TEMP:  68; 6HR PCP:  0.02;


$$
MOZ072>076-082>087-097>100-106>115-240100-
...SOUTH CENTRAL AND SOUTHEAST MISSOURI...

CITY           SKY/WX    TMP DP  RH WIND       PRES   REMARKS
CAPE GIRARDEAU CLOUDY    68  56  65 NW9       29.67S
6HR MIN TEMP:  68; 6HR MAX TEMP:  73;

FARMINGTON     CLOUDY    63  56  78 NW7       29.72R
6HR MIN TEMP:  63; 6HR MAX TEMP:  69; 6HR PCP: TRACE;

POPLAR BLUFF   LGT RAIN  61  59  93 NW6       29.68F
6HR MIN TEMP:  59; 6HR MAX TEMP:  73; 6HR PCP:  0.31;

WEST PLAINS    CLOUDY    63  52  67 NW12G20   29.74S
6HR MIN TEMP:  62; 6HR MAX TEMP:  74; 6HR PCP: TRACE;


$$




USA.gov is the U.S. government's official web portal to all federal, state and local government web resources and services.